GFSMW_prec_cthk_003.txt.gz
RH
25 27 27 26 27 28 29 31 32 33 35 35 37 40 44 45 47 45 45 46 46 45 46 49 50 50 51 51 50 47 44 40 37 34 30 27 23 24 32 53 47 62 51
26 28 28 29 29 29 30 31 32 34 36 37 39 41 44 47 51 52 50 51 53 56 57 57 58 58 57 58 56 53 51 48 45 42 39 36 34 38 43 41 51 61 55
27 28 29 30 31 32 33 35 36 38 38 40 41 44 46 47 48 49 51 55 59 64 67 70 70 68 67 66 64 62 59 52 51 49 46 42 40 38 35 40 44 46 52
28 28 29 31 33 34 36 37 39 39 41 44 47 49 52 54 57 58 59 63 68 72 76 77 77 76 76 75 72 68 64 62 58 55 53 48 44 42 35 32 28 32 42
32 33 34 34 35 36 38 40 42 44 46 48 51 54 55 61 64 65 71 77 80 81 79 81 81 79 77 76 73 72 70 69 65 66 61 56 51 48 43 36 34 32 28
37 39 41 42 42 43 44 47 48 49 51 55 57 60 61 66 71 72 77 83 80 82 81 81 82 81 77 76 74 72 69 67 64 62 62 61 59 56 53 44 40 37 36
43 45 46 47 48 48 51 53 55 57 58 59 62 65 68 72 74 73 76 80 76 74 77 77 71 70 69 68 64 62 57 52 51 51 49 47 45 47 49 48 42 39 33
49 49 50 52 53 54 55 58 59 60 64 65 67 71 74 76 75 74 79 83 79 79 75 72 71 72 70 66 61 53 47 42 40 38 36 36 36 35 36 44 44 43 36
53 57 58 59 60 61 61 64 65 66 68 71 73 74 77 79 79 82 83 82 82 79 78 77 75 71 68 63 54 46 44 42 40 38 37 36 32 31 33 37 44 45 43
60 60 62 64 65 66 67 67 68 70 73 73 73 78 79 81 83 86 87 85 82 83 82 77 75 69 61 52 46 45 44 41 39 37 36 35 34 36 37 38 43 49 46
63 63 67 69 72 73 68 67 69 70 72 73 76 79 81 83 86 86 86 85 87 83 80 75 69 61 53 48 46 43 42 42 40 38 37 33 34 36 44 52 59 71 70
67 70 73 74 74 75 70 69 69 70 73 75 76 77 80 83 88 90 90 89 87 81 77 72 66 58 53 48 44 40 37 37 36 34 34 35 37 37 34 41 57 65 75
70 72 75 78 79 77 73 72 72 73 73 74 76 78 82 89 93 92 91 86 81 80 75 67 58 50 44 39 37 37 36 37 36 37 41 42 45 46 46 49 55 62 69
70 74 78 81 84 79 74 72 72 73 74 77 81 84 90 93 92 91 86 85 85 78 68 55 45 38 35 34 34 34 35 39 42 46 48 47 50 52 56 59 56 59 68
76 77 79 82 85 81 74 73 75 75 78 82 88 94 93 92 93 90 88 86 83 71 56 38 31 32 33 32 34 37 39 42 45 50 56 61 67 72 73 74 72 68 64
74 78 83 87 84 79 77 76 75 80 87 93 96 94 93 93 91 90 88 86 72 54 31 30 31 32 34 35 38 40 46 56 63 68 74 81 85 85 87 87 86 84 82
85 84 89 86 86 81 77 76 82 89 96 95 94 93 92 90 89 90 85 68 47 31 29 30 34 36 39 42 44 54 67 77 82 83 86 87 90 90 89 92 91 90 91
86 87 85 86 84 84 82 85 92 96 96 96 93 91 90 89 87 75 51 33 30 27 30 36 40 42 45 47 61 76 81 83 84 85 86 86 89 93 96 97 95 93 91
95 90 86 87 85 89 91 92 96 96 93 90 90 90 87 81 65 37 29 28 26 30 36 40 44 46 53 68 78 83 85 85 86 88 93 96 96 97 98 97 95 95 94
93 88 85 83 85 86 87 92 90 90 90 90 87 82 77 64 35 29 27 26 32 37 38 40 49 62 72 77 85 89 89 90 93 96 96 96 97 97 98 97 97 97 97
86 84 83 87 81 87 91 88 90 91 85 81 77 73 58 33 29 27 28 32 37 37 41 49 65 78 79 83 90 94 96 97 96 97 98 98 97 96 97 97 97 97 96
85 76 75 81 87 93 94 90 87 82 79 76 68 49 32 30 29 30 33 37 40 44 50 64 79 83 85 90 95 98 98 98 97 97 97 98 98 98 97 97 96 96 97
72 75 81 87 92 92 89 87 85 80 72 61 47 32 31 31 32 34 37 42 44 49 61 80 84 86 92 95 98 98 98 98 98 98 98 98 98 98 97 97 98 98 98
77 81 86 91 93 90 88 85 79 70 59 47 34 32 32 32 35 38 45 46 49 58 75 86 89 93 93 96 97 98 98 98 96 96 98 98 98 98 96 89 85 90 91
82 87 93 94 91 88 86 80 69 57 46 36 33 33 34 36 36 43 50 51 56 69 83 92 94 93 94 97 97 97 97 98 96 98 98 98 98 98 93 93 92 85 81
90 95 94 91 89 86 79 68 57 47 35 33 35 36 35 36 39 47 54 54 59 77 90 96 96 97 97 97 97 98 97 98 98 98 98 97 93 94 95 93 93 85 84

GFSMW_prec_cthk_006.txt.gz
RH
22 23 26 26 26 26 27 28 29 30 30 33 35 36 37 39 42 45 47 48 48 48 49 52 53 54 55 56 55 54 56 54 53 50 47 42 36 33 30 28 30 38 54
24 25 27 26 26 28 29 31 33 34 35 36 38 39 41 43 46 49 52 52 52 52 57 58 59 63 64 64 64 65 63 61 59 56 53 49 46 41 41 41 42 45 56
25 26 28 31 32 33 35 37 38 38 39 39 42 43 44 49 52 53 56 55 56 62 66 69 72 72 71 72 72 70 68 67 67 65 61 56 52 51 45 43 42 45 48
31 32 34 35 37 38 40 42 43 44 46 47 47 51 51 52 56 59 61 64 66 70 73 76 77 80 78 80 82 80 77 74 69 66 68 65 60 58 53 50 45 41 39
33 36 38 39 40 42 44 46 48 50 53 55 54 54 59 59 63 67 69 71 73 75 75 79 85 88 88 83 82 74 69 71 72 70 68 66 64 63 60 53 52 48 42
38 41 43 44 45 47 47 51 53 54 56 58 60 59 58 63 66 68 69 71 73 76 81 83 86 83 80 81 72 70 69 68 68 68 64 61 61 61 59 55 51 51 47
44 45 47 49 51 51 54 56 57 57 59 61 64 65 64 64 67 70 71 73 74 78 79 79 84 83 82 74 73 73 70 67 64 61 57 53 50 50 51 49 45 43 41
55 54 56 60 60 58 60 64 66 66 65 67 68 69 68 68 69 73 78 78 80 81 83 87 86 81 82 85 79 74 69 65 60 55 51 49 49 48 46 46 49 48 41
60 60 62 65 65 65 67 71 69 68 67 70 73 74 72 71 72 77 80 83 82 85 89 92 88 92 83 79 75 70 64 60 55 52 49 45 44 46 48 44 44 46 46
62 66 66 68 70 71 70 69 68 68 70 72 72 72 72 74 77 81 84 85 90 95 95 94 92 85 80 77 73 68 60 54 49 45 42 40 39 38 38 40 41 44 50
69 70 71 74 71 70 69 68 67 67 67 67 70 70 70 75 79 84 87 95 96 96 97 94 84 82 80 74 67 59 54 48 41 38 36 34 32 31 30 29 30 36 40
69 70 72 73 70 71 70 70 70 68 65 68 67 65 70 76 79 81 91 94 96 96 91 86 86 82 76 67 58 49 44 41 38 35 32 30 29 30 30 29 26 28 30
69 71 74 74 73 72 70 71 72 68 68 68 66 66 72 76 79 86 90 96 95 91 88 88 85 77 65 53 42 39 34 31 31 31 32 32 32 32 31 30 32 35 38
73 74 76 75 75 75 77 77 73 69 67 68 69 67 71 78 88 92 94 95 92 90 89 88 77 62 46 34 30 32 35 36 37 37 37 37 38 41 44 45 42 43 43
73 77 78 79 79 79 77 77 75 71 69 72 71 77 82 87 95 96 94 92 91 91 85 67 50 32 29 29 35 39 37 36 37 38 40 44 53 61 64 65 60 62 60
77 80 83 83 83 81 83 78 77 73 74 73 81 89 92 93 95 95 92 91 88 72 51 33 29 27 29 35 37 40 41 44 45 50 61 71 79 82 84 84 82 80 77
84 85 82 80 82 81 82 83 78 73 79 86 92 96 97 96 94 92 92 85 67 41 29 27 27 31 35 38 41 47 50 55 66 74 81 85 88 90 89 89 90 89 86
86 81 80 82 83 82 81 77 78 88 89 94 97 97 95 93 92 87 82 61 37 29 26 28 35 36 36 41 48 57 70 77 81 84 86 87 87 89 90 89 86 85 88
86 83 83 81 77 77 71 78 85 89 93 94 92 91 91 85 82 74 48 32 29 27 31 36 37 37 45 54 71 79 81 85 88 89 91 94 93 94 96 96 94 94 93
86 84 80 77 71 68 74 78 80 83 86 91 88 85 81 78 62 43 31 28 29 33 35 37 41 50 58 75 81 84 86 88 90 91 92 95 96 97 98 96 94 90 92
81 80 77 70 68 75 76 79 82 86 93 86 85 81 72 56 40 32 30 31 33 35 39 44 48 60 78 83 90 93 95 96 92 93 95 97 98 98 98 98 96 93 95
78 76 73 72 76 78 82 87 87 86 87 87 82 67 52 41 32 31 31 32 35 39 44 45 54 79 85 93 97 98 98 97 96 97 98 97 98 98 97 95 92 95 96
73 74 73 76 80 83 86 89 89 89 86 76 62 50 40 33 32 34 33 35 39 44 46 54 74 87 94 98 98 97 98 98 98 98 96 98 98 96 96 95 95 98 98
70 70 74 82 86 90 89 90 88 84 69 58 49 41 34 33 34 34 36 38 43 47 52 68 91 94 98 97 97 96 98 98 98 95 97 98 98 97 96 97 97 92 87
71 72 80 86 92 90 90 87 79 68 56 48 44 36 34 35 34 36 39 44 48 51 56 89 95 97 96 97 97 95 96 96 97 97 97 98 98 96 95 97 95 91 81
69 79 86 90 90 89 87 81 69 58 51 44 35 34 35 37 38 39 40 47 49 46 71 94 98 98 98 97 98 97 98 98 98 97 96 95 95 97 95 94 94 86 74

GFSMW_prec_cthk_009.txt.gz
RH
22 21 23 26 28 31 32 33 33 35 36 38 40 41 41 41 42 45 47 48 50 53 53 53 53 54 57 59 61 60 60 61 61 59 57 54 52 52 48 46 40 33 35
24 26 29 31 34 35 35 37 39 41 43 44 44 46 47 48 49 51 53 55 56 56 55 58 59 60 61 64 66 68 68 67 66 64 61 58 56 55 54 51 49 46 41
28 31 33 34 36 37 41 43 45 45 46 48 49 50 51 51 53 55 58 60 60 61 61 63 66 67 69 69 71 73 74 73 69 68 66 64 63 60 61 57 53 52 49
32 33 36 39 39 41 43 45 47 49 51 52 52 54 56 56 58 60 63 64 64 64 66 68 73 74 74 74 75 76 75 77 74 65 66 64 63 64 61 62 57 54 53
39 38 42 44 45 45 48 49 52 54 57 58 59 59 60 61 64 66 67 68 68 68 72 76 79 79 80 81 85 84 81 80 76 65 68 70 67 66 64 57 60 57 51
43 44 45 46 46 48 49 53 55 58 57 57 59 59 61 64 69 70 70 71 72 73 75 75 79 82 85 88 91 91 88 81 73 70 66 63 61 59 61 58 55 58 54
50 49 49 52 57 60 59 60 63 64 62 64 67 68 69 70 70 71 72 74 74 77 80 83 87 89 88 87 88 91 89 87 82 71 66 60 56 54 51 52 52 51 52
58 60 63 65 66 65 63 65 72 69 66 64 66 70 72 72 73 74 72 71 74 77 82 88 92 92 89 92 94 96 86 80 77 71 67 61 56 53 52 54 56 52 49
64 65 68 68 69 67 68 74 74 69 66 63 63 64 65 65 68 70 70 72 74 79 85 90 93 92 95 97 90 86 82 76 69 63 60 57 56 54 51 50 53 55 54
63 64 67 66 67 68 72 73 72 69 64 64 63 62 63 65 69 72 75 76 82 87 91 97 97 97 94 91 87 84 77 71 66 59 54 51 47 46 48 48 50 54 57
69 70 70 71 73 74 75 73 69 64 63 62 61 62 63 66 70 75 77 83 93 97 95 97 95 93 91 90 86 80 72 65 56 50 46 43 42 42 41 43 42 42 43
69 68 70 73 73 74 72 68 66 65 63 61 60 61 63 63 66 74 82 86 91 90 94 94 93 91 90 88 81 72 61 50 44 40 37 32 28 26 25 26 27 29 32
69 73 76 75 71 69 69 69 68 68 68 64 62 60 57 65 71 73 77 83 87 91 90 88 88 87 81 70 58 46 39 34 29 28 29 29 30 29 27 27 28 29 29
70 70 74 74 72 70 68 69 70 73 73 69 61 57 64 71 72 75 81 85 90 87 86 85 79 65 54 43 35 30 30 31 33 34 37 38 38 38 37 36 34 35 38
72 73 73 71 68 67 69 73 75 72 69 66 66 68 72 73 76 79 85 89 88 89 87 77 62 45 32 28 30 35 36 37 36 35 37 39 41 43 48 53 52 57 56
77 77 75 73 71 70 71 73 75 72 72 74 76 77 82 86 88 93 93 95 92 88 75 54 33 28 29 33 36 38 37 38 41 42 46 53 61 66 71 75 77 79 77
81 81 79 75 70 70 72 72 71 72 71 80 85 89 92 97 96 95 93 89 81 62 40 29 27 29 33 37 39 39 43 47 56 66 70 74 77 80 81 82 82 82 86
82 78 75 69 66 70 73 70 68 71 75 80 86 89 93 93 91 89 83 70 51 37 29 27 30 34 38 39 41 49 57 70 76 79 81 82 83 84 86 87 86 85 85
80 76 70 69 68 72 69 66 69 68 70 77 84 86 88 87 85 77 60 47 37 29 29 31 35 37 37 44 51 63 77 80 82 84 87 87 88 86 88 88 87 85 86
79 74 68 65 68 72 68 73 72 72 76 83 89 90 88 86 73 55 46 37 32 32 32 33 36 43 45 51 63 82 88 88 88 89 90 91 91 92 95 96 95 91 91
73 67 66 68 69 71 72 79 77 78 85 91 92 92 87 66 52 46 39 33 32 32 32 36 42 45 52 62 85 93 94 93 90 90 92 96 97 94 90 95 96 95 96
64 70 66 66 69 72 76 78 81 86 92 91 88 75 60 50 47 40 35 33 32 31 34 37 42 48 66 88 91 95 95 95 95 95 95 97 97 94 94 96 94 92 91
64 63 60 62 70 74 81 85 92 93 89 84 66 56 50 47 40 36 34 33 33 35 39 41 43 64 89 92 94 95 96 98 98 98 98 98 98 97 97 96 94 96 98
64 63 64 62 69 75 82 90 91 88 79 63 56 53 49 42 37 36 37 37 39 42 42 45 53 88 94 93 94 96 96 98 98 98 98 96 96 96 97 96 97 98 98
70 74 65 68 79 85 92 90 84 75 64 59 55 49 43 39 38 39 40 42 45 46 46 49 77 95 94 95 98 97 98 97 97 96 93 91 90 91 98 99 96 96 93
72 73 74 82 90 94 93 88 81 69 62 54 49 44 41 41 43 42 42 46 51 51 48 54 90 97 98 98 98 98 98 97 97 96 93 88 88 88 92 98 98 93 85

GFSMW_prec_cthk_015.txt.gz
RH
30 29 30 32 35 41 44 46 46 49 51 52 52 51 48 48 48 48 48 49 50 51 52 53 55 56 56 56 58 59 59 59 59 58 58 59 59 59 57 55 54 53 51
31 32 33 36 40 44 47 47 48 53 57 58 55 54 55 53 52 51 50 51 52 54 56 58 60 61 60 59 59 59 59 61 62 60 60 57 58 59 61 59 56 53 51
36 38 40 41 45 47 50 53 57 57 58 59 60 61 60 56 54 52 51 52 53 54 56 58 60 61 62 61 61 61 58 59 61 61 62 61 57 58 61 62 61 59 52
37 38 41 45 48 51 56 60 61 59 60 61 62 61 60 58 59 57 56 55 57 58 59 60 62 63 65 67 68 66 66 67 67 67 67 66 61 60 57 60 60 60 62
42 44 45 46 50 57 63 62 64 65 63 60 61 62 60 59 57 53 52 53 55 59 62 64 65 64 71 73 76 74 72 76 76 78 81 79 70 67 63 55 57 61 62
51 56 58 61 62 63 65 65 67 67 64 63 65 64 60 57 52 53 52 53 55 58 62 68 70 72 71 73 83 79 79 84 80 87 90 88 86 78 77 66 53 54 56
60 61 61 64 66 67 69 67 66 64 64 61 62 65 65 62 61 59 59 58 57 57 58 63 67 70 75 79 82 81 92 87 90 93 92 93 92 94 90 78 66 60 58
58 61 65 65 66 68 66 66 65 65 64 63 62 61 63 62 59 58 57 57 55 55 54 56 63 70 79 79 90 94 92 96 99 98 98 93 92 89 82 79 74 64 60
62 64 66 66 66 66 65 64 62 61 59 56 56 56 56 56 54 53 52 50 49 50 54 61 65 71 75 82 91 94 91 94 94 93 90 87 83 79 77 75 72 70 60
60 64 65 68 68 66 64 64 64 63 62 62 61 57 51 47 46 47 47 48 52 56 61 67 75 81 87 90 93 92 90 90 90 89 88 84 81 79 76 72 69 66 61
66 68 70 71 70 69 69 66 65 64 64 62 58 56 47 44 42 45 49 55 59 65 69 73 79 83 81 82 85 84 81 77 76 74 71 66 63 59 56 53 51 49 49
68 72 73 75 76 73 74 70 67 64 61 59 57 55 51 43 42 44 50 58 65 73 81 79 74 77 79 83 81 77 76 71 64 57 51 47 43 40 38 37 38 38 37
70 70 74 76 72 71 75 70 67 63 61 58 54 50 46 47 48 50 54 63 74 82 82 82 81 86 88 85 79 75 68 56 48 44 38 33 31 29 27 28 30 31 31
71 74 79 77 72 70 67 66 62 59 54 54 55 56 61 64 65 71 72 69 82 88 90 93 94 91 87 80 70 57 47 40 35 30 26 27 28 28 29 29 28 29 30
70 72 74 75 69 65 58 53 52 51 53 55 59 64 69 75 75 80 84 82 88 93 91 86 82 77 68 58 52 47 40 34 29 26 26 27 28 30 35 39 39 43 45
75 73 70 67 65 60 61 63 62 61 57 53 58 69 74 77 85 89 87 91 94 93 89 82 76 68 56 50 43 37 29 26 24 24 27 30 36 41 48 56 63 68 70
76 74 70 67 60 63 67 64 68 71 57 58 60 65 68 74 83 84 94 93 92 89 81 67 57 50 44 38 31 26 25 25 27 32 36 41 51 64 69 72 74 75 77
74 68 66 65 66 68 65 71 68 65 65 71 82 84 78 84 88 94 93 87 79 67 58 53 49 43 35 29 25 24 24 28 35 42 56 70 76 80 81 82 82 82 84
72 72 63 62 65 68 64 64 67 70 79 79 86 88 82 91 94 90 82 71 62 57 54 49 42 36 29 26 25 27 30 37 48 72 82 84 85 88 91 92 91 90 91
70 62 57 55 54 54 61 65 66 66 75 79 83 84 90 90 85 75 67 60 58 54 49 42 37 32 29 29 30 33 40 54 77 86 87 90 91 93 96 97 95 93 94
60 51 45 44 49 49 57 67 70 73 78 85 88 90 88 79 69 63 60 58 53 47 41 38 34 33 33 32 34 41 58 83 90 89 91 93 94 95 95 96 96 97 98
45 44 43 46 53 63 63 70 69 77 83 91 91 88 80 70 64 59 55 50 45 40 40 39 35 35 35 37 39 55 84 96 94 93 93 93 91 90 90 90 94 97 97
44 45 47 49 62 70 74 73 77 85 91 93 91 86 73 63 56 49 44 41 40 43 44 45 40 37 36 39 51 74 97 98 97 96 96 94 92 86 85 91 97 98 98
45 53 58 61 65 68 73 83 88 93 93 92 84 67 55 46 41 42 42 41 45 49 53 52 47 44 43 46 69 95 97 98 97 98 97 95 88 82 81 84 89 94 96
57 63 64 61 58 63 74 82 88 91 87 71 57 46 41 41 43 41 47 53 59 63 63 59 57 52 49 61 90 98 98 98 98 98 98 93 85 79 79 81 82 81 76
54 57 58 52 59 71 80 82 81 73 60 47 42 40 41 40 42 51 57 70 76 77 71 66 62 59 60 85 98 98 98 98 98 98 98 93 86 81 76 77 80 80 82

GFSMW_prec_cthk_021.txt.gz
RH
28 32 33 33 34 36 40 46 51 52 52 55 58 60 60 60 60 60 58 61 61 60 59 54 50 48 49 52 52 52 53 53 56 55 54 53 54 55 55 55 55 55 54
30 31 33 35 38 43 48 53 54 56 61 61 60 61 60 59 60 60 59 59 58 56 53 52 50 49 49 49 50 54 53 55 58 56 58 57 55 58 60 59 58 56 54
35 36 39 41 46 49 54 58 61 64 63 60 58 59 60 59 59 60 62 61 58 59 58 57 56 55 54 52 53 54 57 57 59 62 62 61 56 60 58 64 62 61 59
39 41 44 48 52 54 57 58 59 59 61 61 61 62 62 62 62 62 62 59 60 58 58 57 54 51 51 49 52 55 54 59 61 62 64 61 60 61 61 64 73 67 67
45 47 50 52 54 56 58 59 61 64 66 66 67 66 66 67 67 66 60 57 56 55 52 50 48 44 43 43 45 48 48 52 57 63 71 64 65 64 64 64 73 70 70
52 53 54 57 58 59 61 64 66 68 67 68 69 71 76 76 69 68 64 61 58 52 50 48 44 42 42 41 41 43 47 49 56 59 66 68 69 69 68 71 77 78 78
56 61 61 62 62 65 67 68 68 71 77 76 79 80 74 70 65 61 55 52 48 45 43 42 41 40 36 36 38 45 49 54 59 64 65 68 76 78 85 86 79 84 88
59 62 62 63 64 65 65 65 69 69 72 72 68 66 65 62 58 56 56 54 51 47 45 46 44 43 45 47 46 51 59 60 67 72 76 80 84 92 91 98 89 89 89
58 59 58 60 63 65 66 68 69 67 65 61 60 57 54 55 57 59 57 51 45 41 41 44 45 49 54 57 58 62 68 75 77 81 88 90 98 93 97 95 96 96 85
55 56 59 62 66 68 68 66 65 63 60 58 57 59 62 64 63 58 51 46 43 44 46 53 56 57 64 69 73 72 71 76 82 85 90 94 93 88 83 80 82 79 78
60 62 62 63 64 66 65 61 60 59 60 62 63 64 63 57 45 35 34 33 39 45 50 59 65 70 78 85 88 85 89 91 94 94 90 85 80 74 71 68 64 62 61
57 57 58 57 58 59 58 57 57 58 63 61 59 57 51 46 37 39 36 43 53 56 63 71 81 86 91 95 97 96 95 94 91 86 79 73 67 64 64 61 58 55 54
56 57 58 57 56 58 58 58 59 57 54 53 52 48 45 44 47 49 45 48 60 69 76 81 86 88 91 91 90 88 85 83 76 67 63 60 58 56 55 53 50 48 46
61 62 62 60 57 55 53 52 53 50 49 50 50 49 51 53 56 56 52 57 67 76 81 85 89 92 92 88 83 77 70 62 59 55 54 52 48 47 43 39 37 35 34
65 68 65 60 56 55 49 44 40 41 43 46 43 43 46 49 53 57 65 72 77 80 85 89 89 86 79 76 72 66 63 60 57 54 49 45 41 35 33 35 34 37 38
71 70 65 61 59 52 46 42 41 43 46 45 50 54 55 64 69 74 72 80 84 85 81 80 76 72 69 64 61 60 58 56 51 50 46 38 33 33 33 36 41 46 51
76 75 69 64 57 51 43 42 45 45 47 49 50 54 56 65 69 77 81 85 80 74 71 69 65 61 60 58 57 55 53 50 47 41 38 37 36 40 46 51 58 66 70
79 70 68 65 59 52 44 42 44 44 47 49 50 56 63 70 75 81 81 77 73 68 66 63 60 56 52 51 49 45 43 44 40 37 37 39 44 54 63 71 75 79 82
77 75 68 63 53 47 41 38 45 52 52 57 58 64 71 79 83 85 82 69 59 48 41 38 38 39 39 39 39 40 43 41 37 37 40 49 60 73 83 83 84 86 89
75 72 66 59 52 50 44 42 48 51 59 63 69 71 78 84 84 72 47 36 35 36 37 37 38 40 43 45 44 44 45 42 41 41 49 66 78 86 88 89 90 90 91
72 70 67 59 56 51 45 44 44 49 55 63 72 74 79 73 46 37 34 33 34 35 36 41 48 52 56 58 55 52 51 48 47 49 67 84 88 93 93 93 88 84 85
65 71 64 59 52 48 47 41 42 44 52 61 70 74 59 41 36 33 32 34 36 42 48 51 61 67 67 64 57 56 57 56 55 68 88 94 97 95 94 89 83 83 84
73 70 58 55 55 55 54 50 53 52 58 68 72 54 41 38 35 33 34 41 47 52 61 64 65 66 69 67 65 62 63 62 72 98 98 98 98 97 91 84 84 83 83
62 57 60 56 58 54 54 61 56 55 62 72 58 40 41 39 35 35 44 48 56 62 63 70 73 72 73 69 67 69 70 81 99 98 98 98 98 96 85 81 83 83 82
54 53 51 46 50 51 57 60 56 58 72 66 43 41 43 40 37 44 51 58 64 65 68 76 77 76 72 74 81 82 92 98 98 98 98 98 98 94 84 82 84 84 82
46 45 50 47 47 52 59 55 58 63 73 46 41 42 44 41 44 48 56 65 68 73 79 78 78 77 79 86 92 98 98 98 98 98 98 98 98 94 88 85 82 82 80

GFSMW_prec_cthk_024.txt.gz
RH
31 35 37 38 38 38 40 47 54 55 56 60 61 65 65 62 60 60 59 56 56 56 56 55 54 55 58 59 59 59 60 58 58 55 53 51 51 51 50 49 50 51 51
34 34 37 37 38 41 44 49 54 58 60 62 65 65 64 64 63 63 65 65 62 62 62 61 59 60 59 59 60 59 57 59 61 61 61 57 55 53 50 52 54 53 53
36 37 39 41 44 46 51 55 59 61 63 63 64 65 67 67 67 68 68 69 70 69 65 60 57 55 54 54 54 54 56 57 56 61 62 59 55 60 60 51 50 57 56
39 42 44 47 50 52 55 58 60 60 59 62 64 65 66 68 68 68 72 77 75 68 65 59 55 50 50 51 48 49 49 53 50 56 57 57 59 64 66 60 55 55 58
46 48 50 53 55 55 57 58 60 60 62 62 64 64 72 82 78 73 72 72 69 64 60 56 47 45 46 45 46 47 49 49 49 49 53 56 57 58 69 65 74 68 61
51 53 54 56 59 62 64 62 64 65 64 63 63 68 67 66 63 62 60 55 52 49 50 51 48 46 44 43 42 41 41 43 44 45 48 50 55 58 67 69 68 86 80
55 59 61 62 63 63 64 64 66 67 66 68 69 63 61 59 57 55 52 50 49 50 49 44 41 40 36 35 33 35 39 44 48 50 54 58 61 65 68 73 75 80 77
59 58 57 58 60 60 61 66 67 67 70 69 64 59 54 54 54 54 54 51 45 42 40 37 36 37 39 42 44 46 50 54 57 60 63 67 68 72 75 77 81 82 89
59 56 56 59 60 61 61 59 57 56 56 55 54 52 54 56 58 55 50 44 40 40 42 44 49 52 53 53 55 58 62 65 70 75 78 80 83 85 88 91 94 94 93
56 56 57 56 55 55 55 55 55 57 59 60 60 58 60 58 54 47 42 38 34 36 41 49 52 55 58 66 70 75 81 82 82 83 88 92 97 97 96 95 93 93 92
60 58 57 57 58 59 60 58 59 62 63 65 60 52 47 45 44 41 38 40 43 45 50 56 61 67 73 78 84 88 90 96 97 96 97 94 93 90 88 86 87 83 79
60 62 62 63 63 64 63 65 65 61 55 49 49 41 45 44 42 42 47 49 50 52 55 64 71 78 83 87 91 94 93 92 91 89 85 81 77 76 75 78 77 74 71
64 64 66 67 68 65 66 61 54 48 47 45 45 50 52 55 52 51 48 49 53 58 66 75 83 87 90 91 92 91 88 85 78 73 69 66 67 67 66 64 62 61 61
66 69 71 69 64 65 61 53 50 48 49 53 55 52 53 47 49 53 53 60 69 73 80 85 84 85 84 83 80 77 75 71 70 69 67 65 64 66 65 63 60 55 52
70 73 71 69 65 62 57 56 57 55 51 56 54 54 53 51 54 61 70 77 85 88 88 80 76 72 70 69 64 62 64 62 62 63 63 62 59 55 49 49 47 48 44
74 73 71 71 69 63 59 54 55 57 56 53 53 51 46 53 56 62 68 74 77 80 78 77 71 67 68 60 57 56 58 58 57 57 58 57 53 53 49 41 42 43 46
75 71 74 70 66 63 60 58 50 55 56 57 54 54 56 61 61 66 74 80 79 70 55 44 41 42 43 38 36 35 35 39 42 48 50 49 47 46 46 48 51 53 56
78 75 76 74 71 66 59 56 51 54 58 53 56 61 66 67 67 70 77 72 49 40 39 39 38 39 41 36 35 36 38 43 46 47 47 47 43 45 51 55 59 65 73
83 82 77 72 70 65 59 55 55 55 53 55 56 67 67 68 69 69 51 39 37 34 35 34 37 40 43 47 45 45 50 52 49 45 46 49 49 51 58 65 71 80 86
86 84 70 60 58 59 59 54 48 50 52 50 55 58 61 67 62 47 39 37 36 36 38 41 47 51 56 60 58 56 54 51 53 52 53 53 54 60 71 78 84 90 94
84 66 62 68 70 62 51 47 51 52 52 57 59 63 66 62 49 41 38 36 38 42 43 46 53 55 61 64 63 60 61 61 61 61 59 61 67 77 84 89 95 96 88
64 68 65 60 54 53 54 51 49 52 55 60 62 65 63 52 44 43 42 41 45 47 51 54 56 64 70 75 76 67 68 70 68 65 67 77 87 90 96 98 97 89 86
57 56 58 56 52 50 50 49 54 57 57 60 62 67 57 48 49 46 44 47 51 55 55 58 67 75 83 81 77 76 79 78 75 79 91 98 98 98 98 99 90 85 86
55 50 48 46 43 52 57 58 58 57 59 66 67 65 53 48 48 45 50 54 56 57 62 72 78 81 85 84 84 86 87 85 94 98 98 98 98 98 98 91 88 87 87
49 46 48 45 48 52 56 57 58 61 68 70 70 60 48 48 46 49 54 56 59 62 68 75 75 82 87 88 84 93 98 99 99 98 99 99 98 98 94 92 90 87 85
47 47 43 44 46 50 57 58 64 71 76 73 70 56 48 46 49 56 56 58 61 66 71 71 74 82 84 79 90 98 98 98 98 99 98 98 98 99 96 92 89 87 84

GFSMW_prec_cthk_030.txt.gz
RH
38 44 47 48 45 46 48 49 54 57 59 61 65 66 68 70 70 68 67 65 66 63 62 61 63 65 63 59 58 57 54 51 51 48 47 43 43 46 54 58 60 56 52
37 41 46 49 50 47 49 51 53 56 58 61 67 67 67 68 67 66 66 69 67 64 64 63 59 54 52 49 48 46 43 40 44 48 50 47 41 44 48 55 60 62 65
37 40 42 43 45 48 50 54 56 58 61 61 61 62 63 64 64 65 69 69 70 69 65 62 54 49 47 44 42 40 41 44 46 53 59 57 52 50 46 49 58 74 81
41 43 45 47 50 54 56 57 58 60 59 55 56 58 60 62 65 67 68 65 63 58 56 53 48 46 44 41 40 42 45 46 44 45 49 49 55 56 50 45 43 53 67
47 49 51 53 55 55 56 58 57 56 54 52 55 57 58 59 59 57 54 53 50 50 51 50 49 47 46 44 46 46 46 48 49 49 45 42 42 49 60 50 48 50 53
51 53 53 55 55 56 55 55 54 54 56 55 51 49 49 50 51 51 52 53 54 54 53 52 45 42 42 44 47 52 49 48 47 48 49 49 48 45 53 57 48 48 47
50 50 52 56 59 59 58 54 51 50 49 49 52 53 55 56 56 57 58 58 56 53 49 47 46 45 45 43 43 43 48 47 46 46 47 52 56 55 56 62 62 55 49
49 52 54 55 57 57 56 52 52 52 54 54 55 57 59 60 62 62 59 57 55 52 49 48 47 46 43 45 50 50 48 48 52 55 56 58 66 69 71 76 79 75 70
51 54 57 59 57 56 56 56 56 57 56 56 57 57 58 59 58 58 58 55 53 49 45 43 41 42 45 45 46 48 49 53 60 70 75 75 79 78 82 85 89 96 95
56 60 60 60 60 61 61 60 58 57 58 60 58 56 53 53 54 56 56 53 49 47 45 44 44 40 40 45 50 54 62 67 70 74 79 83 87 91 93 94 94 93 94
61 61 61 60 64 62 62 64 62 62 61 58 57 51 52 54 55 56 57 52 49 44 48 51 48 51 58 63 67 68 72 79 80 80 82 85 86 88 89 90 88 90 92
72 68 67 68 66 67 66 67 65 62 61 58 54 58 58 59 60 59 54 49 48 49 51 54 58 66 70 71 74 76 77 69 68 69 67 63 69 73 73 74 78 82 81
80 72 71 68 69 70 69 66 64 66 61 62 62 59 63 63 58 49 48 45 45 47 53 60 64 74 79 82 78 62 56 49 47 42 34 41 46 50 58 70 75 77 76
69 69 70 72 73 72 71 67 69 68 67 68 68 71 65 55 52 47 45 45 44 49 57 60 66 71 67 53 47 49 45 43 41 35 32 34 39 43 49 53 61 71 74
68 69 72 71 72 72 69 71 71 68 66 64 64 62 57 54 51 48 48 49 50 53 57 60 58 51 48 50 55 48 43 41 35 30 30 34 39 46 50 53 49 46 50
69 71 69 65 65 67 71 71 65 61 62 57 57 60 62 57 56 53 53 54 57 60 60 52 49 50 55 52 45 41 42 42 42 43 44 50 53 57 63 62 54 48 45
69 67 65 65 66 69 68 64 61 60 58 57 58 67 70 67 56 50 58 59 61 62 53 48 49 52 50 47 44 45 48 49 50 52 56 59 63 64 68 66 65 59 53
72 68 68 67 69 68 64 62 69 67 63 58 58 57 55 53 51 58 63 64 66 57 51 48 50 48 48 51 48 50 56 59 61 66 69 70 69 68 65 60 55 53 53
64 65 64 62 58 59 66 68 67 68 67 62 70 69 82 68 63 62 67 71 66 60 49 51 51 50 49 50 57 63 65 66 67 68 74 76 73 70 69 68 63 58 54
62 58 58 57 61 63 60 58 57 54 57 63 84 71 86 92 84 71 75 77 75 59 51 52 54 53 52 59 62 67 70 74 81 82 82 85 84 80 75 71 67 63 64
57 53 51 52 51 47 39 38 41 49 51 54 91 80 70 93 89 72 82 80 78 56 53 53 53 54 59 62 65 74 79 83 83 84 90 87 85 83 79 75 74 77 82
44 43 40 37 36 34 37 43 47 50 49 57 58 90 88 95 83 81 84 89 63 55 52 53 53 56 62 64 72 81 84 85 85 97 97 96 94 95 95 95 93 91 91
39 35 34 30 28 34 46 51 49 54 53 54 68 84 84 80 86 91 89 73 53 52 53 55 57 59 58 61 75 81 84 87 97 98 99 99 99 99 99 99 99 99 99
37 39 31 30 35 40 42 44 50 54 57 65 79 85 83 86 88 86 78 51 51 53 55 60 61 59 55 63 69 77 91 95 97 98 99 99 99 99 99 99 99 99 97
33 29 32 37 37 41 43 50 56 58 66 69 75 75 84 87 89 81 50 49 52 56 58 62 64 61 57 63 73 83 92 95 98 98 99 99 98 98 98 98 98 99 98
30 34 34 33 34 44 50 55 59 68 71 73 72 76 81 88 79 49 50 48 54 54 59 63 65 65 61 63 74 86 94 96 98 98 99 99 98 98 98 99 98 99 95

GFSMW_prec_cthk_033.txt.gz
RH
40 48 52 52 54 60 65 65 67 62 60 57 59 62 66 70 72 71 70 68 65 62 63 64 62 59 55 51 48 44 41 38 37 36 33 34 36 36 36 39 39 42 50
42 45 51 57 61 63 59 57 54 55 56 57 60 64 68 69 67 65 66 66 66 65 65 64 61 55 48 46 44 43 40 38 38 42 41 38 35 38 41 44 47 49 55
40 45 47 48 50 50 51 49 52 54 55 57 58 58 57 55 57 61 63 65 65 66 65 59 52 49 49 48 46 45 41 39 41 47 50 50 48 45 39 37 41 45 48
42 44 47 50 50 51 53 53 52 53 56 56 54 54 54 55 57 58 57 55 53 51 52 52 52 53 51 49 42 42 43 46 48 50 55 58 61 58 48 43 42 43 41
49 44 46 48 50 52 51 53 56 57 54 50 49 47 47 49 51 52 53 54 55 56 56 58 58 52 45 45 44 47 48 48 47 46 42 46 46 51 48 39 37 36 38
52 49 49 49 48 50 54 57 56 55 54 54 53 54 54 54 54 54 54 54 55 56 56 52 47 45 45 45 44 43 42 41 42 43 45 45 42 42 49 46 36 34 31
54 51 51 52 52 51 53 54 54 54 55 54 55 55 56 58 58 58 58 56 55 52 49 45 41 42 46 44 42 42 42 43 41 37 39 43 47 50 55 60 56 52 40
60 58 57 51 53 57 57 56 56 57 57 55 54 55 58 58 57 56 53 52 55 50 47 50 50 49 45 42 42 42 38 37 39 42 46 55 61 65 70 71 74 68 61
66 64 60 59 58 57 58 59 59 57 55 56 56 55 57 56 54 52 54 55 57 59 57 51 46 42 41 40 40 41 44 46 50 54 58 61 68 74 82 85 86 90 74
70 66 68 66 66 66 65 61 60 61 58 59 60 58 56 53 53 57 57 61 64 62 54 47 43 45 46 46 51 55 56 58 61 65 71 74 72 75 79 83 88 93 90
70 72 70 73 73 68 65 63 63 64 64 64 62 62 55 55 60 57 54 54 51 47 47 50 51 50 54 56 61 67 68 70 74 72 60 57 59 58 60 56 65 65 77
79 76 75 72 69 69 71 70 69 66 65 66 67 61 56 53 51 51 52 52 46 48 51 54 55 58 60 64 67 72 75 69 53 52 56 55 56 41 33 40 47 53 55
72 72 68 71 74 74 71 71 67 64 64 66 61 54 47 46 45 45 50 48 46 49 48 56 60 61 62 62 61 55 49 48 52 54 54 51 45 35 30 35 38 40 44
74 73 74 73 72 73 72 67 64 64 59 54 47 44 41 43 41 42 44 46 37 44 50 58 66 61 52 49 44 48 49 50 48 46 44 40 36 34 36 41 43 44 43
71 69 68 64 61 60 62 63 59 55 50 46 46 47 43 38 39 46 51 47 40 44 54 63 65 62 50 46 50 52 50 45 43 42 43 43 44 49 58 62 56 55 54
68 66 64 58 55 55 53 50 48 48 52 54 61 58 55 65 69 67 68 66 60 67 60 63 70 54 46 50 53 52 45 45 47 48 49 51 56 61 66 69 70 71 66
62 58 54 51 48 44 44 49 54 56 57 54 59 65 66 66 66 86 95 92 87 80 70 67 74 51 53 57 55 48 46 50 53 55 55 55 60 63 66 72 72 72 71
55 52 48 48 51 50 50 50 52 52 49 54 52 56 58 65 75 98 95 91 83 84 82 77 62 54 60 57 53 52 53 55 60 66 69 69 72 78 73 70 71 70 67
52 51 49 48 43 43 43 43 40 37 31 31 35 41 49 62 88 98 97 96 93 85 76 81 54 57 56 53 53 52 54 61 70 78 81 83 83 88 88 82 80 74 69
51 47 42 38 40 39 36 31 24 26 34 37 45 48 47 56 92 97 93 87 80 75 87 53 56 56 54 55 56 55 60 70 77 84 86 91 96 95 90 84 81 72 68
45 40 36 36 34 29 25 25 28 35 40 45 51 51 57 67 90 97 91 88 78 82 67 49 53 53 56 58 57 56 66 78 82 86 91 96 97 98 97 93 90 85 80
41 37 36 32 30 30 26 31 37 41 42 49 50 52 59 70 88 84 86 82 82 74 44 51 52 54 58 57 53 57 69 77 87 92 94 97 99 99 99 99 99 96 90
37 34 32 32 29 25 30 36 40 41 46 50 54 57 65 69 74 76 80 86 70 41 46 50 50 56 59 57 55 58 74 87 93 95 98 99 99 98 99 99 99 99 99
34 32 29 26 24 26 29 38 44 48 51 53 65 66 63 65 75 84 86 69 43 43 51 49 52 58 60 58 55 58 77 89 92 97 99 99 99 99 99 99 99 99 98
33 28 25 24 24 26 31 41 50 52 54 64 71 77 76 78 84 85 56 44 44 50 49 50 56 61 62 60 58 58 75 88 94 98 98 98 98 98 99 99 99 99 98
27 24 24 25 26 32 39 48 53 55 60 75 77 77 79 82 76 51 45 45 46 51 49 53 58 64 64 62 61 59 76 87 93 98 98 98 98 99 99 98 98 98 98